Location: Hall+in+Tirol
(47.2830°N, 11.5170°E)
Time: 06:07:09
(UTC+01:00)

Daily predictions for brighter satellites

Satellite Brightness Start Highest point End
(mag) Time Altitude Azimuth Time Altitude Azimuth Time Altitude Azimuth
CENTAUR R/B 4.2 18:15:40 10° NW 18:23:08 49° WSW 18:31:03 10° S
Cosmos 2333 Rocket 3.9 18:20:06 10° N 18:23:25 15° NE 18:26:42 10° ENE
Cosmos 407 Rocket 3.9 18:19:27 10° S 18:24:24 45° ESE 18:29:27 10° NNE
Cosmos 2082 Rocket 4.0 18:21:44 10° WSW 18:26:46 31° NW 18:31:50 10° NNE
SL-16 R/B 2.4 18:22:47 10° NNW 18:28:29 81° WSW 18:34:10 10° SSE
Meteor 1-18 Rocket 4.2 18:25:17 10° N 18:30:52 89° ENE 18:36:29 10° S
Cosmos 1633 3.8 18:28:03 10° SE 18:30:55 22° E 18:33:47 10° NE
BREEZE-M DEB (TANK) 2.7 18:29:58 10° WNW 18:32:30 70° NNE 18:38:03 10° E
USA 229 DEB 4.5 18:26:31 10° NW 18:33:01 37° NNE 18:39:37 10° E
USA 229 4.5 18:26:37 10° NW 18:33:06 37° NNE 18:39:41 10° E
Cosmos 2151 Rocket 3.8 18:31:23 10° SSE 18:35:45 50° E 18:40:09 10° NNE
Okean 1 Rocket 4.2 18:37:03 10° SE 18:40:33 23° E 18:44:05 10° NE
FengYun 1-2 T 4.5 18:35:32 10° SE 18:40:44 46° ENE 18:45:59 10° N
Thor Agena Rocket 4.4 18:37:38 10° N 18:42:35 54° WNW 18:47:28 10° SW
Tiangong 2 3.4 18:40:42 10° WSW 18:43:00 19° SSW 18:45:16 10° SSE
TSX-5 4.3 18:40:28 10° S 18:43:08 25° ESE 18:45:35 12° NE
NOSS 2-2 (E) 4.3 18:40:21 10° WSW 18:44:29 56° NW 18:49:32 10° NE
Cosmos 2322 Rocket 2.9 18:40:19 10° NNW 18:45:50 59° WSW 18:51:20 10° S
Meteor 1-20 Rocket 4.3 18:41:37 10° S 18:47:27 82° E 18:53:20 10° NNE
Cosmos 1140 Rocket 4.2 18:43:13 10° SSE 18:47:40 31° E 18:52:09 10° NE
Gbstr 26 Del rocket 4.5 18:46:51 10° SSE 18:48:58 14° SE 18:50:02 13° ESE
Cosmos 1190 Rocket 4.0 18:45:31 10° SSW 18:50:42 85° ESE 18:55:57 10° NNE
USA 215 4.0 18:48:26 10° NE 18:54:35 45° NNW 19:00:42 10° W
SKYMED 2 4.4 18:51:15 10° N 18:55:31 54° WNW 18:59:45 10° SSW
USA 186 3.6 18:56:29 14° NE 18:56:29 14° NE 18:57:24 10° NNE
Okean 1-7 Rocket 4.2 18:54:01 10° N 18:58:13 35° ENE 19:02:20 10° SE
Meteor 1-13 Rocket 4.1 18:53:57 10° N 18:59:30 68° ENE 19:05:05 10° SSE
Cosmos 2322 3.7 18:54:10 10° NNW 18:59:54 69° ENE 19:05:35 10° SE
Spot 2 Rocket 3.6 18:55:03 10° SE 18:59:56 52° ENE 19:04:52 10° N
Cosmos 1025 Rocket 3.9 18:58:42 10° N 19:02:32 29° ENE 19:05:21 15° SE
FENGYUN 3A 3.6 18:57:12 10° SSE 19:02:34 69° ENE 19:07:58 10° N
Cosmos 1340 2.6 18:59:09 10° N 19:02:58 82° ENE 19:06:46 10° SSE
SJ-6B 3.1 19:03:38 10° S 19:07:38 71° WSW 19:11:34 10° NNW
Cosmos 1536 Rocket 4.1 19:07:52 10° NNW 19:12:18 64° W 19:16:43 10° S
COSMOS 2428 2.9 19:08:10 10° NNW 19:13:43 50° ENE 19:17:50 18° SE
Cosmos 2237 4.2 19:08:30 10° NNW 19:14:13 62° ENE 19:19:27 12° SE
Cosmos 2181 Rocket 4.0 19:08:20 10° N 19:14:36 85° E 19:20:56 10° S
Meteor 2-4 Rocket 3.7 19:09:47 10° N 19:15:20 59° ENE 19:20:42 10° SSE
Envisat 4.0 19:15:00 24° E 19:16:22 27° ENE 19:20:35 10° N
ATLAS CENTAUR R/B 4.1 19:14:58 10° NW 19:16:47 12° NNW 19:18:34 10° N
Cosmos 1954 Rocket 3.9 19:12:55 10° SSW 19:18:04 72° ESE 19:23:19 10° NNE
Genesis I 3.2 19:16:38 10° NNW 19:20:34 62° NE 19:22:15 31° ESE
Cosmos 2237 Rocket 3.4 19:16:23 10° N 19:21:01 24° NE 19:22:25 22° ENE
GEOS 3 Rocket 3.7 19:19:29 13° NE 19:24:05 59° SE 19:29:16 10° SSW
ALOS 2.5 19:20:30 10° S 19:25:10 74° WSW 19:29:52 10° NNW
ERS-1 Rocket 4.3 19:25:31 21° ENE 19:25:31 21° ENE 19:29:03 10° NNE
Spot 1 4.0 19:23:06 21° SE 19:25:36 52° ENE 19:29:40 10° N
Cosmos 1536 2.7 19:29:36 10° S 19:33:32 61° E 19:37:29 10° NNE
Resurs 01 Rocket 1.8 19:29:47 10° S 19:34:11 75° WSW 19:38:37 10° NNW
CZ-2D R/B 3.1 19:31:55 18° SSE 19:34:42 76° ENE 19:38:32 10° N
SAR-Lupe-1 3.9 19:34:21 43° SE 19:35:18 65° ENE 19:38:54 10° N
Cosmos 2074 Rocket 4.0 19:29:22 10° SSE 19:35:26 56° E 19:41:34 10° NNE
Cosmos 405 Rocket 3.9 19:32:13 10° N 19:34:55 28° NE 19:34:55 28° NE
Cosmos 1709 Rocket 4.3 19:29:45 10° SSW 19:35:58 69° W 19:42:07 10° N
Cosmos 2184 Rocket 4.0 19:30:51 10° SSE 19:36:59 55° E 19:43:05 10° NNE
Cosmos 2360 Rocket 2.8 19:31:58 10° NW 19:37:32 58° WSW 19:43:04 10° S
Meteor 1-11 Rocket 3.8 19:32:35 10° S 19:38:23 89° ESE 19:44:21 10° NNE
Cosmos 2219 3.5 19:33:57 10° S 19:39:21 43° ESE 19:42:20 24° NE
SAR-Lupe-4 3.4 19:38:14 29° SSE 19:39:57 87° ENE 19:43:33 10° NNW
Cosmos 2219 Rocket 2.5 19:34:50 10° NNW 19:40:13 46° NE 19:41:45 37° E
H-2A R/B 3.0 19:38:51 10° S 19:42:31 65° W 19:46:17 10° NNW
Cosmos 1300 Rocket 4.0 19:41:22 10° SSW 19:45:44 62° W 19:50:09 10° N
Cosmos 1238 Rocket 4.5 19:49:15 10° NNW 19:51:49 25° W 19:54:18 10° SSW
SL-16 R/B 3.7 19:49:08 10° N 19:53:10 21° NE 19:53:10 21° NE
Nadezhda 3 Rocket 4.1 19:48:01 10° N 19:53:57 47° ENE 19:55:07 42° ESE
Resurs 1-3 4.3 19:50:49 10° S 19:55:07 54° W 19:59:26 10° NNW
Cosmos 1818 4.2 19:52:49 10° SW 19:58:09 54° NW 20:02:52 13° NNE
Cosmos 1741 Rocket 3.8 19:54:24 10° SSW 19:59:36 78° ESE 20:04:51 10° NNE
Cosmos 2285 Rocket 3.9 19:54:09 10° NNW 20:00:38 81° ENE 20:03:53 32° SSE
Cosmos 2154 Rocket 4.1 20:05:30 49° E 20:05:45 49° E 20:11:50 10° NNE
Helios 1A 3.4 20:04:37 29° S 20:06:33 61° WSW 20:10:42 10° NNW
Cosmos 2333 Rocket 2.2 20:03:13 10° NNW 20:08:56 61° ENE 20:09:25 58° E
Cosmos 1763 Rocket 4.4 20:09:55 10° N 20:13:23 33° NNE 20:13:23 33° NNE
Okean 1 Rocket 4.5 20:14:02 10° SW 20:18:14 39° WNW 20:22:28 10° N
Cosmos 1980 3.8 20:13:59 10° NNW 20:19:18 58° NE 20:19:18 58° NE
Cosmos 1892 Rocket 4.1 20:15:48 10° N 20:19:06 51° NNW 20:19:06 51° NNW
Helios 1B rocket 4.3 20:17:05 10° N 20:24:06 19° SSW 20:25:19 10° SSW
Meteor 2-13 Rocket 4.2 20:18:07 10° S 20:24:10 82° E 20:30:17 10° N
USA 229 DEB 3.9 20:17:28 10° NW 20:24:35 75° SW 20:27:07 44° SSE
USA 229 3.8 20:17:35 10° NW 20:24:42 75° SW 20:27:11 44° SSE
Okean 2 4.3 20:26:36 10° NNW 20:30:11 47° WNW 20:30:11 47° WNW
Cosmos 468 Rocket 4.1 20:31:09 10° NNW 20:35:57 72° WNW 20:35:57 72° WNW
USA 215 4.1 20:35:07 33° NE 20:36:47 39° N 20:42:43 10° WNW
NOSS 3-1 (A) 4.0 20:29:58 10° NW 20:37:16 61° NE 20:38:02 58° ENE
NOSS 0 Rocket 3.8 20:33:10 10° NNW 20:39:20 83° WSW 20:39:38 80° SSW
ATLAS 2AS CENTAUR R/B 3.9 20:35:28 10° NW 20:42:44 33° NNE 20:43:48 32° NE
Envisat 3.8 20:55:12 46° W 20:55:12 46° W 21:00:04 10° NNW
NOSS 3-1 (C) 3.8 20:50:12 10° NW 20:57:40 87° NE 20:58:02 83° ESE
COSMOS 2428 4.3 20:52:53 10° NW 20:57:44 29° WSW 20:59:55 23° SW
ERS-1 Rocket 4.2 21:05:30 37° NW 21:05:30 37° NW 21:08:41 10° NNW
Cosmos 2237 Rocket 2.9 20:59:57 10° NNW 21:04:17 51° NW 21:04:17 51° NW
H-2A R/B 4.2 21:13:07 18° N 21:13:07 18° N 21:14:34 10° N
Cosmos 2219 Rocket 3.7 21:19:07 10° NW 21:23:31 31° W 21:23:31 31° W
SL-16 R/B 3.9 21:32:33 10° NNW 21:35:04 27° NNW 21:35:04 27° NNW
Cosmos 2333 Rocket 4.3 21:48:15 10° NW 21:51:28 22° W 21:51:28 22° W
ATLAS 2AS CENTAUR R/B 4.2 22:26:47 10° NW 22:31:15 36° NW 22:31:15 36° NW
